| time (UTC) | temp C | wind direction | speed KPH | gust KPH | rain 1hr cm | rain 24hr cm | rain mn cm | humidity % | barometer mb |
| 20260508040059 | 3 | 194 | 0.0 | 3.2 | 0.00 | 0.58 | 0.00 | 72 | 1007.8 |
| 20260508034539 | 5 | 280 | 0.0 | 3.2 | 0.00 | 0.61 | 0.58 | 73 | 1007.7 |
| 20260508033036 | 5 | 294 | 0.0 | 1.6 | 0.00 | 0.61 | 0.58 | 66 | 1007.8 |
| 20260508031536 | 6 | 294 | 0.0 | 1.6 | 0.00 | 0.61 | 0.58 | 64 | 1007.9 |
| 20260508030033 | 7 | 294 | 0.0 | 1.6 | 0.00 | 0.61 | 0.58 | 57 | 1007.9 |
| 20260508024530 | 8 | 297 | 0.0 | 3.2 | 0.00 | 0.64 | 0.58 | 52 | 1007.8 |
| 20260508023027 | 8 | 339 | 0.0 | 6.4 | 0.00 | 0.64 | 0.58 | 51 | 1007.5 |
| 20260508021528 | 9 | 299 | 3.2 | 6.4 | 0.00 | 0.64 | 0.58 | 51 | 1007.5 |
| 20260508020033 | 10 | 9 | 3.2 | 8.0 | 0.00 | 0.64 | 0.58 | 53 | 1007.3 |
| 20260508014526 | 10 | 9 | 3.2 | 20.9 | 0.00 | 0.71 | 0.58 | 49 | 1007.2 |
| 20260508013026 | 10 | 360 | 4.8 | 12.9 | 0.00 | 0.71 | 0.58 | 51 | 1007.0 |
| 20260508011524 | 10 | 15 | 1.6 | 11.3 | 0.00 | 0.71 | 0.58 | 52 | 1007.0 |
| 20260508010024 | 11 | 355 | 3.2 | 11.3 | 0.00 | 0.71 | 0.58 | 51 | 1006.7 |
| 20260508004523 | 11 | 345 | 4.8 | 12.9 | 0.00 | 0.79 | 0.58 | 48 | 1006.4 |
| 20260508003022 | 11 | 338 | 6.4 | 12.9 | 0.00 | 0.79 | 0.58 | 47 | 1006.1 |
| 20260508001522 | 11 | 278 | 1.6 | 8.0 | 0.00 | 0.79 | 0.58 | 46 | 1005.9 |
| 20260508000022 | 12 | 302 | 1.6 | 4.8 | 0.00 | 0.79 | 0.58 | 45 | 1005.8 |
| 20260507234522 | 12 | 311 | 1.6 | 9.7 | 0.00 | 0.79 | 0.58 | 41 | 1005.6 |
| 20260507233032 | 13 | 333 | 1.6 | 11.3 | 0.00 | 0.79 | 0.58 | 41 | 1005.4 |
| 20260507231524 | 13 | 286 | 4.8 | 9.7 | 0.00 | 0.79 | 0.58 | 41 | 1005.1 |
| 20260507230019 | 14 | 341 | 3.2 | 9.7 | 0.00 | 0.79 | 0.58 | 39 | 1004.9 |
| 20260507224522 | 15 | 266 | 4.8 | 11.3 | 0.00 | 0.91 | 0.58 | 37 | 1004.7 |
| 20260507223019 | 15 | 311 | 3.2 | 9.7 | 0.00 | 0.91 | 0.58 | 38 | 1004.5 |
| 20260507221521 | 15 | 240 | 1.6 | 20.9 | 0.00 | 0.91 | 0.58 | 38 | 1004.3 |
| 20260507220017 | 15 | 313 | 3.2 | 22.5 | 0.00 | 0.91 | 0.58 | 36 | 1004.3 |
| 20260507214517 | 15 | 265 | 3.2 | 19.3 | 0.00 | 1.30 | 0.58 | 39 | 1004.3 |
| 20260507213022 | 16 | 34 | 3.2 | 12.9 | 0.00 | 1.30 | 0.58 | 38 | 1004.2 |
| 20260507211516 | 16 | 346 | 4.8 | 12.9 | 0.00 | 1.30 | 0.58 | 39 | 1004.1 |
| 20260507210015 | 16 | 321 | 6.4 | 22.5 | 0.00 | 1.30 | 0.58 | 41 | 1004.0 |
| 20260507204520 | 16 | 211 | 6.4 | 16.1 | 0.00 | 1.60 | 0.58 | 37 | 1003.9 |
| 20260507203015 | 17 | 259 | 8.0 | 20.9 | 0.00 | 1.60 | 0.58 | 37 | 1003.7 |
| 20260507201516 | 17 | 268 | 8.0 | 22.5 | 0.00 | 1.60 | 0.58 | 40 | 1003.7 |
| 20260507200013 | 17 | 278 | 4.8 | 20.9 | 0.00 | 1.60 | 0.58 | 42 | 1003.8 |
| 20260507194510 | 16 | 254 | 4.8 | 14.5 | 0.00 | 1.88 | 0.58 | 51 | 1003.8 |
| 20260507193014 | 16 | 311 | 8.0 | 24.1 | 0.00 | 1.88 | 0.58 | 52 | 1003.9 |
| 20260507191511 | 15 | 273 | 3.2 | 9.7 | 0.00 | 1.88 | 0.58 | 64 | 1004.0 |
| 20260507190008 | 15 | 199 | 6.4 | 12.9 | 0.00 | 1.88 | 0.58 | 63 | 1003.9 |
| 20260507184504 | 15 | 177 | 6.4 | 14.5 | 0.00 | 1.88 | 0.58 | 62 | 1004.2 |
| 20260507183003 | 15 | 188 | 6.4 | 14.5 | 0.00 | 1.88 | 0.58 | 61 | 1004.3 |
| 20260507181502 | 15 | 207 | 9.7 | 14.5 | 0.00 | 1.88 | 0.58 | 62 | 1004.5 |
| 20260507180003 | 14 | 276 | 8.0 | 16.1 | 0.00 | 1.88 | 0.58 | 64 | 1004.7 |
| 20260507174502 | 14 | 253 | 6.4 | 14.5 | 0.00 | 1.88 | 0.58 | 67 | 1004.9 |
| 20260507173003 | 13 | 209 | 8.0 | 14.5 | 0.00 | 1.88 | 0.58 | 70 | 1004.9 |
| 20260507171610 | 14 | 225 | 9.7 | 20.9 | 0.00 | 1.88 | 0.58 | 67 | 1004.9 |
| 20260507170117 | 14 | 190 | 8.0 | 11.3 | 0.00 | 1.88 | 0.58 | 65 | 1005.1 |
| 20260507164600 | 15 | 202 | 4.8 | 12.9 | 0.00 | 1.88 | 0.58 | 62 | 1005.0 |
| 20260507163100 | 15 | 192 | 0.0 | 8.0 | 0.00 | 1.88 | 0.58 | 63 | 1005.0 |
| 20260507161606 | 15 | 172 | 4.8 | 11.3 | 0.00 | 1.88 | 0.58 | 65 | 1005.3 |
| 20260507160059 | 15 | 269 | 3.2 | 14.5 | 0.00 | 1.88 | 0.58 | 58 | 1005.6 |
| 20260507154557 | 15 | 298 | 3.2 | 12.9 | 0.00 | 1.88 | 0.58 | 61 | 1005.7 |
| 20260507153100 | 15 | 220 | 3.2 | 9.7 | 0.00 | 1.88 | 0.58 | 58 | 1005.8 |
| 20260507151559 | 15 | 258 | 1.6 | 9.7 | 0.00 | 1.88 | 0.58 | 61 | 1005.8 |
| 20260507150059 | 14 | 290 | 1.6 | 6.4 | 0.00 | 1.88 | 0.58 | 63 | 1006.0 |
| 20260507144556 | 14 | 265 | 4.8 | 11.3 | 0.00 | 1.88 | 0.58 | 63 | 1006.1 |
| 20260507143050 | 14 | 204 | 3.2 | 12.9 | 0.00 | 1.88 | 0.58 | 64 | 1006.3 |
| 20260507141609 | 14 | 19 | 3.2 | 11.3 | 0.00 | 1.88 | 0.58 | 64 | 1006.4 |
| 20260507140048 | 13 | 340 | 1.6 | 9.7 | 0.00 | 1.88 | 0.58 | 69 | 1006.6 |
| 20260507134545 | 13 | 11 | 1.6 | 8.0 | 0.00 | 1.88 | 0.58 | 70 | 1006.6 |
| 20260507133042 | 12 | 259 | 3.2 | 11.3 | 0.00 | 1.88 | 0.58 | 69 | 1006.6 |
| 20260507131540 | 12 | 294 | 1.6 | 11.3 | 0.00 | 1.88 | 0.58 | 71 | 1006.6 |
| 20260507130039 | 12 | 342 | 4.8 | 12.9 | 0.00 | 1.88 | 0.58 | 71 | 1006.9 |
| 20260507124534 | 11 | 306 | 3.2 | 11.3 | 0.00 | 1.88 | 0.58 | 75 | 1007.1 |
| 20260507123039 | 11 | 274 | 3.2 | 9.7 | 0.00 | 1.88 | 0.58 | 76 | 1006.9 |
| 20260507121530 | 10 | 348 | 3.2 | 9.7 | 0.00 | 1.88 | 0.58 | 78 | 1006.9 |
| 20260507120040 | 10 | 5 | 1.6 | 4.8 | 0.00 | 1.88 | 0.58 | 81 | 1007.0 |
| 20260507114528 | 8 | 287 | 0.0 | 6.4 | 0.00 | 1.88 | 0.58 | 82 | 1006.9 |
| 20260507113039 | 9 | 12 | 0.0 | 3.2 | 0.00 | 1.88 | 0.58 | 85 | 1007.0 |
| 20260507111527 | 8 | 301 | 0.0 | 0.0 | 0.00 | 1.88 | 0.58 | 86 | 1007.3 |
| 20260507110030 | 8 | 42 | 0.0 | 0.0 | 0.00 | 1.88 | 0.58 | 87 | 1007.0 |
| 20260507104525 | 8 | 337 | 0.0 | 0.0 | 0.00 | 1.88 | 0.58 | 88 | 1007.2 |
| 20260507103022 | 7 | 205 | 0.0 | 4.8 | 0.00 | 1.88 | 0.58 | 88 | 1007.6 |
| 20260507101522 | 7 | 302 | 0.0 | 3.2 | 0.00 | 1.88 | 0.58 | 87 | 1007.1 |
| 20260507100030 | 7 | 323 | 0.0 | 1.6 | 0.00 | 1.88 | 0.58 | 87 | 1006.8 |
| 20260507094519 | 7 | 294 | 0.0 | 4.8 | 0.00 | 1.88 | 0.58 | 86 | 1006.8 |
| 20260507093018 | 7 | 321 | 1.6 | 4.8 | 0.00 | 1.88 | 0.58 | 85 | 1006.4 |
| 20260507091521 | 7 | 286 | 1.6 | 6.4 | 0.00 | 1.88 | 0.58 | 85 | 1006.8 |
| 20260507090015 | 8 | 32 | 1.6 | 12.9 | 0.00 | 1.88 | 0.58 | 85 | 1006.6 |
| 20260507084513 | 8 | 344 | 3.2 | 11.3 | 0.00 | 1.88 | 0.58 | 86 | 1006.5 |
| 20260507083011 | 8 | 24 | 1.6 | 8.0 | 0.00 | 1.88 | 0.58 | 88 | 1006.2 |
| 20260507081508 | 8 | 240 | 1.6 | 6.4 | 0.00 | 1.88 | 0.58 | 89 | 1006.6 |
| 20260507080006 | 8 | 273 | 1.6 | 4.8 | 0.00 | 1.88 | 0.58 | 89 | 1006.2 |
| 20260507074506 | 8 | 299 | 1.6 | 8.0 | 0.00 | 1.88 | 0.58 | 90 | 1006.2 |
| 20260507073004 | 8 | 308 | 1.6 | 8.0 | 0.00 | 1.88 | 0.58 | 91 | 1006.0 |
| 20260507071601 | 8 | 292 | 1.6 | 6.4 | 0.00 | 1.88 | 0.58 | 91 | 1005.9 |
| 20260507070059 | 9 | 296 | 3.2 | 8.0 | 0.00 | 1.88 | 0.58 | 92 | 1005.7 |
| 20260507064611 | 9 | 296 | 1.6 | 8.0 | 0.00 | 1.88 | 0.58 | 92 | 1005.5 |
| 20260507063106 | 9 | 267 | 1.6 | 6.4 | 0.00 | 1.88 | 0.58 | 92 | 1005.3 |
| 20260507061553 | 10 | 329 | 0.0 | 4.8 | 0.03 | 1.88 | 0.58 | 93 | 1005.3 |
| 20260507060051 | 10 | 346 | 1.6 | 4.8 | 0.03 | 1.88 | 0.58 | 93 | 1005.0 |
| 20260507054549 | 10 | 360 | 1.6 | 8.0 | 0.10 | 1.88 | 0.58 | 94 | 1005.3 |
| 20260507053049 | 10 | 322 | 1.6 | 9.7 | 0.28 | 1.88 | 0.58 | 94 | 1005.1 |
| 20260507051547 | 11 | 5 | 3.2 | 11.3 | 0.48 | 1.85 | 0.56 | 94 | 1005.2 |
| 20260507050045 | 11 | 342 | 3.2 | 9.7 | 0.56 | 1.85 | 0.56 | 94 | 1005.1 |
| 20260507044544 | 10 | 340 | 1.6 | 9.7 | 0.51 | 1.78 | 0.48 | 94 | 1005.4 |
| 20260507043046 | 10 | 240 | 1.6 | 6.4 | 0.30 | 1.57 | 0.28 | 94 | 1005.5 |
| 20260507041544 | 10 | 329 | 1.6 | 8.0 | 0.10 | 1.37 | 0.08 | 94 | 1004.8 |